Погода в Троицком Посаде

Россия / Республика Марий Эл     56°17′43″N   46°27′29″E
темп.,
°C
ветер,
м/с
пор.,
м/с
влажн.,
%
обл.,
%
осадки,
мм/ч
давл.,
гПа
погр.,
м
17 апреля, сб
сб1700:00+5всв4107926 0.0 1026262
03:00+4св4108113 0.0 1027232
06:00+3всв511735 0.0 1027284
09:00+8всв69490 0.0 1027564
12:00+12всв67340 0.0 10271088
15:00+13всв67355 0.0 10261176
18:00+9всв58530 0.0 1025442
21:00+5всв410760 0.0 1026260
18 апреля, вс
вс1800:00+3всв410831 0.0 1025197
03:00+2всв38870 0.0 1025159
06:00+2св38861 0.0 1025192
09:00+9всв58580 0.0 1025672
12:00+12всв67415 0.0 10241511
15:00+12всв774467 0.0 10241816
18:00+7всв8116860 0.0 1026741
21:00+5всв6116483 0.0 1028533
19 апреля, пн
пн1900:00+3всв6126094 0.0 1028534
03:00+1всв6116671 0.0 1029464
06:00+1всв6136880 0.0 1030610
09:00+4в8104488 0.0 10311092
12:00+7в8103180 0.0 10301666
15:00+8в8102897 0.0 10301809
18:00+6в61137100 0.0 1030837
21:00+3в61243100 0.0 1031515
20 апреля, вт
вт2000:00+2в6134881 0.0 1031503
03:000в613565 0.0 1033371
06:000в614562 0.0 1032425
09:00+6вюв812430 0.0 1032986
12:00+9юв911310 0.0 10321391
15:00+9вюв911312 0.0 10291415
18:00+8вюв8133891 0.0 1028977
21:00+5вюв81743100 0.0 1027673
21 апреля, ср
ср2100:00+4юв91748100 0.0 1026677
03:00+4юв10195097 0.0 1024720
06:00+4юв101953100 0.0 1022737
09:00+3юв101974100 1.1 1022767
12:00+3юв111984100 1.5 1022774
15:00+5ююв111877100 1.5 1021806
18:00+5ююв101782100 0.0 1021749
21:00+4ююв91786100 0.0 1022627